World > North America > United States > New Hampshire   Wentworth Marina Website

Wentworth Marina, New Hampshire Regional Weather

Lat: 43.06N, Lon: 70.73W
Wx Zone: NHZ014
Feedback

Wentworth Marina, NH Regional Weather

Expires:201909220300;;153400
ASUS41 KBOX 220200
RWRBOX

REGIONAL WEATHER ROUNDUP
NATIONAL WEATHER SERVICE BOSTON/NORTON MA
1000 PM EDT SAT SEP 21 2019

NOTE:  "FAIR" INDICATES FEW OR NO CLOUDS BELOW 12,000 FEET WITH NO 
SIGNIFICANT WEATHER AND/OR OBSTRUCTIONS TO VISIBILITY.


MEZ002-015-021-024-NHZ003-005-008-011-012-014-VTZ005-008-220300-
NORTHERN NEW ENGLAND
  
CITY           SKY/WX    TMP DP  RH WIND       PRES   REMARKS
PORTLAND ME    FAIR      65  57  75 SW5       30.17R                  
BANGOR ME      FAIR      57  54  89 S3        30.15S                  
CONCORD NH     FAIR      62  59  90 CALM      30.16S                  
MANCHESTER NH  FAIR      70  60  70 CALM      30.15R                  
NASHUA NH      FAIR      65  64  97 CALM      30.16S                  
PORTSMOUTH NH  NOT AVBL                                               
JAFFREY NH     FAIR      60  57  89 CALM      30.20S                  
KEENE NH       FAIR      60  60 100 CALM      30.18S FOG              
BURLINGTON VT  FAIR      65  59  81 CALM      30.13S                  
MT. WASHINGTON NOT AVBL                                               
$$


SKY/WX - Weather  TMP - Temperature  DP - Dew Point  RH - Relative Humidity
WIND - Wind Direction/Speed PRES - Barometric Pressure VSB - Visibility
WCI - Wind Chill Index E13G22 Wind - East Wind 13 mph/Gusts of 22 mph